QPF
0.01 0.00 0.02 0.01 0.01 0.01 0.01 0.01 0.01 0.01 0.01 0.01 0.01 0.01 0.01 0.02 0.02 0.01 0.01 0.02 0.02 0.02 0.04 0.09 0.08 0.03 0.02 0.02 0.04 0.04 0.05 0.07 0.20 0.23 0.38 0.26 0.11 0.14 0.18 0.05 0.26 0.22
0.01 0.00 0.00 0.02 0.02 0.03 0.04 0.03 0.02 0.01 0.01 0.02 0.01 0.01 0.01 0.01 0.02 0.03 0.03 0.02 0.04 0.05 0.03 0.06 0.03 0.03 0.02 0.02 0.02 0.04 0.04 0.08 0.15 0.16 0.33 0.17 0.05 0.13 0.19 0.16 0.04 0.15
0.00 0.00 0.01 0.00 0.01 0.00 0.01 0.03 0.03 0.02 0.03 0.02 0.01 0.01 0.01 0.01 0.01 0.04 0.08 0.15 0.20 0.23 0.13 0.09 0.13 0.07 0.13 0.04 0.05 0.03 0.04 0.07 0.07 0.07 0.16 0.20 0.16 0.16 0.05 0.05 0.10 0.07
0.00 0.00 0.00 0.00 0.01 0.01 0.01 0.01 0.01 0.03 0.02 0.04 0.02 0.02 0.02 0.02 0.02 0.01 0.03 0.09 0.23 0.12 0.06 0.05 0.04 0.06 0.04 0.02 0.05 0.05 0.04 0.04 0.05 0.06 0.09 0.09 0.18 0.20 0.27 0.23 0.26 0.12
0.00 0.00 0.00 0.00 0.00 0.00 0.00 0.01 0.01 0.04 0.03 0.02 0.01 0.01 0.01 0.02 0.02 0.01 0.01 0.03 0.03 0.26 0.15 0.10 0.06 0.07 0.02 0.02 0.02 0.05 0.07 0.08 0.06 0.06 0.09 0.08 0.12 0.14 0.22 0.10 0.06 0.06
0.00 0.00 0.00 0.00 0.00 0.00 0.00 0.01 0.01 0.01 0.01 0.02 0.02 0.01 0.02 0.01 0.01 0.01 0.01 0.03 0.15 0.12 0.04 0.07 0.08 0.03 0.03 0.04 0.06 0.06 0.10 0.12 0.11 0.08 0.13 0.10 0.24 0.23 0.21 0.08 0.14 0.12
0.00 0.00 0.00 0.00 0.00 0.00 0.00 0.00 0.00 0.00 0.02 0.02 0.02 0.02 0.02 0.02 0.02 0.01 0.01 0.02 0.04 0.04 0.08 0.03 0.03 0.08 0.12 0.06 0.05 0.04 0.13 0.10 0.09 0.14 0.10 0.15 0.21 0.35 0.13 0.09 0.12 0.08
0.00 0.00 0.00 0.00 0.00 0.00 0.00 0.00 0.00 0.00 0.00 0.00 0.01 0.01 0.01 0.01 0.01 0.00 0.00 0.00 0.01 0.03 0.06 0.08 0.06 0.03 0.16 0.03 0.09 0.18 0.12 0.09 0.09 0.15 0.18 0.22 0.27 0.06 0.06 0.07 0.06 0.03
0.00 0.00 0.00 0.00 0.00 0.00 0.00 0.00 0.00 0.00 0.00 0.00 0.01 0.01 0.01 0.02 0.02 0.01 0.01 0.01 0.01 0.00 0.02 0.03 0.07 0.07 0.01 0.05 0.10 0.07 0.10 0.14 0.05 0.05 0.08 0.13 0.13 0.14 0.15 0.27 0.10 0.08
0.00 0.00 0.00 0.00 0.00 0.00 0.00 0.00 0.00 0.00 0.00 0.00 0.00 0.01 0.01 0.01 0.02 0.02 0.01 0.02 0.01 0.01 0.01 0.04 0.05 0.12 0.05 0.01 0.02 0.04 0.04 0.06 0.07 0.09 0.09 0.09 0.08 0.12 0.16 0.17 0.08 0.03
0.00 0.00 0.00 0.00 0.00 0.00 0.00 0.00 0.00 0.00 0.00 0.00 0.00 0.00 0.01 0.01 0.01 0.01 0.02 0.02 0.01 0.06 0.09 0.08 0.06 0.07 0.10 0.04 0.02 0.03 0.03 0.03 0.05 0.07 0.07 0.07 0.08 0.12 0.14 0.24 0.21 0.14
0.00 0.00 0.00 0.00 0.00 0.00 0.00 0.00 0.00 0.00 0.00 0.00 0.00 0.00 0.01 0.01 0.02 0.02 0.02 0.03 0.08 0.07 0.12 0.27 0.19 0.22 0.30 0.04 0.06 0.06 0.07 0.05 0.04 0.06 0.06 0.05 0.08 0.09 0.14 0.14 0.24 0.15
0.00 0.00 0.00 0.00 0.00 0.00 0.00 0.00 0.00 0.00 0.00 0.00 0.00 0.00 0.01 0.02 0.02 0.02 0.02 0.03 0.06 0.14 0.15 0.17 0.23 0.23 0.17 0.10 0.24 0.04 0.04 0.06 0.08 0.08 0.05 0.06 0.04 0.18 0.08 0.23 0.28 0.20
0.00 0.00 0.00 0.00 0.00 0.00 0.00 0.00 0.00 0.00 0.00 0.00 0.00 0.00 0.00 0.01 0.02 0.03 0.03 0.05 0.14 0.09 0.14 0.30 0.15 0.12 0.20 0.34 0.29 0.03 0.02 0.03 0.04 0.07 0.10 0.13 0.23 0.12 0.07 0.08 0.08 0.14
0.00 0.00 0.00 0.00 0.00 0.00 0.00 0.00 0.00 0.00 0.00 0.00 0.00 0.00 0.00 0.01 0.01 0.01 0.02 0.03 0.07 0.12 0.21 0.21 0.37 0.57 0.18 0.24 0.37 0.17 0.13 0.10 0.06 0.03 0.05 0.08 0.09 0.11 0.09 0.05 0.06 0.11
0.00 0.00 0.00 0.00 0.00 0.00 0.00 0.00 0.00 0.00 0.00 0.00 0.00 0.00 0.00 0.01 0.01 0.02 0.03 0.04 0.10 0.09 0.07 0.53 0.40 0.84 0.41 0.69 0.57 0.33 0.31 0.09 0.07 0.05 0.04 0.03 0.07 0.11 0.12 0.09 0.05 0.11
0.00 0.00 0.00 0.00 0.00 0.00 0.00 0.00 0.00 0.00 0.00 0.00 0.00 0.00 0.00 0.00 0.01 0.02 0.02 0.04 0.08 0.11 0.11 0.14 0.37 0.29 0.88 0.43 0.18 0.09 0.14 0.28 0.15 0.07 0.02 0.03 0.05 0.05 0.07 0.09 0.09 0.11
0.00 0.00 0.00 0.00 0.00 0.00 0.00 0.00 0.00 0.00 0.00 0.00 0.00 0.00 0.00 0.00 0.00 0.01 0.02 0.04 0.05 0.08 0.09 0.11 0.29 0.21 0.29 0.35 0.30 0.10 0.17 0.18 0.28 0.14 0.10 0.05 0.06 0.09 0.19 0.09 0.10 0.11
0.00 0.00 0.00 0.00 0.00 0.00 0.00 0.00 0.00 0.00 0.00 0.00 0.00 0.00 0.00 0.00 0.01 0.01 0.01 0.02 0.03 0.05 0.14 0.09 0.18 0.12 0.15 0.31 0.36 0.49 0.23 0.21 0.35 0.23 0.08 0.05 0.17 0.26 0.14 0.13 0.16 0.22
0.00 0.00 0.00 0.00 0.00 0.00 0.00 0.00 0.00 0.00 0.00 0.00 0.00 0.00 0.00 0.00 0.00 0.01 0.01 0.02 0.03 0.04 0.05 0.07 0.05 0.04 0.16 0.12 0.12 0.21 0.28 0.36 0.27 0.36 0.21 0.11 0.19 0.15 0.18 0.14 0.18 0.16
0.00 0.00 0.00 0.00 0.00 0.00 0.00 0.00 0.00 0.00 0.00 0.00 0.00 0.00 0.00 0.00 0.00 0.00 0.01 0.01 0.01 0.02 0.05 0.07 0.05 0.02 0.05 0.11 0.09 0.08 0.10 0.21 0.31 0.29 0.22 0.12 0.20 0.10 0.09 0.20 0.19 0.22
0.00 0.00 0.00 0.00 0.00 0.00 0.00 0.00 0.00 0.00 0.00 0.00 0.00 0.00 0.00 0.00 0.00 0.00 0.01 0.01 0.01 0.01 0.01 0.03 0.04 0.02 0.02 0.03 0.12 0.28 0.07 0.09 0.11 0.14 0.27 0.20 0.20 0.23 0.20 0.11 0.26 0.23
0.00 0.00 0.00 0.00 0.00 0.00 0.00 0.00 0.00 0.00 0.00 0.00 0.00 0.00 0.00 0.00 0.00 0.00 0.01 0.02 0.02 0.02 0.02 0.02 0.02 0.01 0.09 0.04 0.02 0.02 0.07 0.08 0.07 0.12 0.15 0.29 0.17 0.27 0.18 0.11 0.16 0.16
0.00 0.00 0.00 0.00 0.00 0.00 0.00 0.00 0.00 0.00 0.00 0.00 0.00 0.00 0.00 0.00 0.00 0.00 0.00 0.01 0.03 0.05 0.06 0.05 0.07 0.04 0.07 0.14 0.02 0.01 0.01 0.02 0.06 0.09 0.12 0.15 0.17 0.24 0.26 0.29 0.15 0.11
0.00 0.00 0.00 0.00 0.00 0.00 0.00 0.00 0.00 0.00 0.00 0.00 0.00 0.00 0.00 0.00 0.00 0.00 0.00 0.00 0.01 0.01 0.02 0.04 0.05 0.15 0.14 0.09 0.02 0.01 0.01 0.02 0.07 0.07 0.10 0.21 0.16 0.17 0.16 0.21 0.17 0.15
0.00 0.00 0.00 0.00 0.00 0.00 0.00 0.00 0.00 0.00 0.00 0.00 0.00 0.00 0.00 0.00 0.00 0.00 0.00 0.00 0.00 0.01 0.01 0.01 0.01 0.01 0.01 0.02 0.02 0.02 0.04 0.07 0.23 0.07 0.09 0.08 0.22 0.35 0.26 0.16 0.12 0.13
MSLP
1017.03 1016.87 1016.63 1016.51 1016.39 1016.11 1015.79 1015.55 1015.27 1015.19 1015.03 1014.67 1014.55 1014.31 1014.11 1013.83 1013.67 1013.51 1013.55 1013.51 1013.39 1013.39 1013.47 1013.75 1013.79 1013.67 1013.79 1013.91 1013.95 1014.07 1014.19 1014.39 1014.63 1014.87 1015.39 1015.67 1015.63 1015.63 1015.87 1016.11 1016.43 1016.47
1017.31 1017.15 1016.87 1016.55 1016.35 1016.15 1015.99 1015.67 1015.39 1015.07 1014.83 1014.59 1014.23 1014.07 1013.87 1013.71 1013.47 1013.55 1013.47 1013.35 1013.19 1013.19 1013.15 1013.35 1013.35 1013.47 1013.59 1013.67 1013.71 1013.83 1013.87 1014.11 1014.51 1014.59 1014.95 1015.03 1015.07 1015.19 1015.27 1015.59 1015.91 1016.15
1017.43 1017.27 1017.07 1016.83 1016.51 1016.23 1015.99 1015.51 1015.35 1015.07 1014.75 1014.35 1014.03 1013.87 1013.83 1013.67 1013.51 1013.35 1013.47 1013.99 1013.95 1013.19 1013.15 1013.35 1013.43 1013.39 1013.67 1013.51 1013.43 1013.59 1013.71 1013.87 1014.19 1014.27 1014.67 1014.63 1014.75 1015.07 1014.99 1015.19 1015.55 1015.95
1017.43 1017.27 1017.15 1016.91 1016.67 1016.39 1015.99 1015.71 1015.23 1014.83 1014.43 1014.31 1014.11 1013.87 1013.75 1013.59 1013.39 1013.23 1013.11 1013.31 1013.67 1013.63 1013.19 1013.19 1013.27 1013.23 1013.03 1013.15 1013.39 1013.47 1013.47 1013.55 1013.67 1013.87 1014.19 1014.31 1014.51 1014.71 1014.83 1014.95 1015.23 1015.63
1017.31 1017.23 1017.07 1016.87 1016.67 1016.47 1016.19 1015.71 1015.31 1014.91 1014.59 1014.27 1013.91 1013.71 1013.59 1013.51 1013.23 1013.03 1012.91 1012.79 1013.07 1013.19 1013.27 1012.91 1012.67 1012.71 1012.79 1012.99 1013.15 1013.35 1013.39 1013.47 1013.43 1013.63 1013.83 1013.99 1014.19 1014.55 1014.75 1014.79 1014.91 1015.07
1017.35 1017.11 1017.03 1016.99 1016.79 1016.55 1016.31 1015.91 1015.43 1015.07 1014.71 1014.39 1014.07 1013.71 1013.47 1013.27 1013.11 1012.91 1012.71 1012.63 1012.63 1012.75 1012.23 1012.07 1012.27 1012.35 1012.51 1012.79 1012.95 1013.03 1013.07 1013.31 1013.35 1013.39 1013.63 1013.91 1014.15 1014.35 1014.43 1014.59 1014.75 1014.87
1017.67 1017.35 1017.15 1016.95 1016.95 1016.71 1016.39 1016.07 1015.83 1015.55 1015.15 1014.75 1014.23 1013.87 1013.47 1013.23 1013.03 1012.79 1012.55 1012.39 1012.31 1012.27 1012.15 1012.19 1012.31 1012.35 1012.39 1012.35 1012.67 1012.83 1012.87 1012.95 1013.11 1013.31 1013.43 1013.67 1013.95 1014.07 1014.07 1014.15 1014.27 1014.39
1017.67 1017.39 1017.23 1017.11 1017.11 1016.91 1016.67 1016.31 1016.03 1015.71 1015.35 1014.95 1014.67 1014.19 1013.67 1013.35 1013.03 1012.87 1012.63 1012.35 1012.19 1012.03 1011.95 1012.11 1012.11 1011.95 1012.19 1011.95 1012.39 1012.55 1012.71 1012.83 1013.03 1013.07 1013.27 1013.11 1013.07 1013.23 1013.63 1013.83 1013.91 1014.19
1017.71 1017.47 1017.39 1017.31 1017.11 1016.99 1016.79 1016.55 1016.19 1015.79 1015.39 1015.11 1014.75 1014.35 1013.95 1013.59 1013.19 1012.79 1012.59 1012.31 1012.15 1011.99 1011.75 1011.63 1011.55 1011.31 1011.39 1011.71 1011.99 1012.23 1012.39 1012.59 1012.75 1012.99 1013.07 1012.99 1012.99 1013.03 1013.19 1013.35 1013.63 1013.95
1017.99 1017.83 1017.79 1017.43 1017.15 1016.95 1016.95 1016.75 1016.35 1015.83 1015.35 1015.11 1014.87 1014.59 1014.27 1013.75 1013.23 1012.87 1012.51 1012.31 1012.11 1011.95 1011.63 1011.51 1011.31 1011.47 1011.67 1011.79 1011.67 1011.87 1012.15 1012.23 1012.55 1012.63 1012.67 1012.83 1012.95 1012.91 1012.91 1013.15 1013.43 1013.47
1018.31 1018.07 1017.79 1017.35 1017.19 1017.07 1017.07 1016.87 1016.55 1016.23 1015.79 1015.31 1014.79 1014.51 1014.27 1013.95 1013.59 1012.95 1012.51 1012.27 1012.15 1011.79 1011.67 1011.39 1011.07 1011.11 1011.59 1011.83 1011.59 1011.55 1011.75 1011.91 1011.99 1012.03 1012.23 1012.35 1012.43 1012.47 1012.71 1013.03 1013.27 1013.27
1018.35 1018.19 1017.87 1017.51 1017.35 1017.15 1017.07 1016.91 1016.67 1016.43 1016.11 1015.67 1015.23 1014.71 1014.27 1013.99 1013.75 1013.27 1012.67 1012.23 1011.99 1011.99 1011.55 1011.47 1010.87 1011.27 1011.71 1011.63 1011.51 1011.43 1011.59 1011.75 1011.83 1011.83 1011.87 1011.95 1012.15 1012.23 1012.47 1012.87 1012.99 1012.91
1018.59 1018.47 1018.07 1017.79 1017.63 1017.35 1017.31 1017.19 1016.95 1016.63 1016.39 1016.07 1015.75 1015.39 1014.95 1014.47 1013.87 1013.35 1012.83 1012.43 1012.11 1012.07 1011.87 1011.27 1011.15 1011.23 1011.43 1011.43 1011.51 1011.11 1011.31 1011.51 1011.63 1011.59 1011.71 1011.79 1011.71 1011.75 1011.87 1012.39 1012.59 1012.75
1018.87 1018.67 1018.31 1018.03 1017.83 1017.67 1017.59 1017.43 1017.19 1016.87 1016.71 1016.47 1016.11 1015.79 1015.47 1015.19 1014.79 1014.07 1013.15 1012.55 1012.19 1012.11 1011.87 1012.07 1011.87 1011.39 1011.35 1011.35 1011.23 1010.87 1011.23 1011.39 1011.43 1011.55 1011.63 1011.67 1011.67 1011.47 1011.55 1011.75 1012.19 1012.55
1019.11 1018.87 1018.63 1018.39 1018.15 1017.95 1017.71 1017.55 1017.35 1017.19 1017.03 1016.87 1016.59 1016.31 1016.07 1015.75 1015.31 1014.79 1014.07 1013.19 1012.51 1012.23 1012.03 1011.99 1011.83 1011.75 1011.63 1011.59 1011.59 1011.47 1011.47 1011.39 1011.39 1011.47 1011.51 1011.47 1011.43 1011.51 1011.47 1011.47 1011.63 1011.95
1019.47 1019.31 1019.03 1018.79 1018.55 1018.27 1018.03 1017.75 1017.51 1017.39 1017.31 1017.19 1016.99 1016.75 1016.55 1016.23 1015.79 1015.27 1014.75 1014.19 1013.71 1013.11 1012.59 1012.47 1012.19 1012.27 1012.55 1012.07 1011.63 1011.67 1011.59 1011.27 1011.43 1011.43 1011.35 1011.23 1011.31 1011.39 1011.43 1011.39 1011.35 1011.43
1019.75 1019.67 1019.43 1019.19 1018.95 1018.63 1018.31 1018.03 1017.83 1017.75 1017.67 1017.55 1017.31 1017.11 1016.95 1016.67 1016.43 1016.03 1015.51 1015.07 1014.47 1013.99 1013.59 1013.19 1013.63 1014.35 1013.51 1013.19 1012.51 1011.59 1011.31 1011.31 1011.47 1011.39 1011.11 1010.95 1010.83 1010.95 1011.11 1011.15 1011.19 1011.19
1019.91 1019.87 1019.71 1019.51 1019.23 1018.99 1018.67 1018.39 1018.23 1018.11 1018.07 1017.91 1017.63 1017.43 1017.27 1017.11 1016.95 1016.67 1016.35 1015.87 1015.43 1014.83 1014.39 1014.31 1014.79 1014.87 1014.43 1013.95 1013.35 1012.83 1012.39 1012.03 1011.39 1011.11 1010.91 1010.67 1010.59 1010.63 1010.79 1010.99 1011.23 1011.39
1020.11 1020.03 1019.95 1019.75 1019.47 1019.27 1019.03 1018.79 1018.59 1018.51 1018.43 1018.27 1018.07 1017.91 1017.67 1017.51 1017.35 1017.11 1016.79 1016.55 1016.31 1015.95 1015.47 1014.79 1015.23 1015.59 1015.27 1014.63 1014.11 1013.51 1012.99 1012.59 1011.99 1011.11 1010.55 1010.67 1010.67 1011.07 1011.03 1011.07 1011.19 1011.31
1020.39 1020.39 1020.35 1020.15 1019.87 1019.71 1019.47 1019.15 1018.95 1018.83 1018.63 1018.43 1018.23 1018.03 1018.03 1017.87 1017.67 1017.55 1017.27 1017.03 1016.87 1016.67 1016.35 1015.67 1015.63 1016.07 1015.75 1015.15 1014.59 1014.07 1013.39 1012.95 1012.27 1011.67 1011.07 1010.59 1010.55 1010.83 1010.99 1011.11 1011.11 1011.19
1020.63 1020.55 1020.43 1020.31 1020.19 1020.03 1019.91 1019.75 1019.55 1019.23 1018.95 1018.63 1018.27 1018.15 1018.07 1018.11 1017.91 1017.71 1017.67 1017.55 1017.31 1017.19 1016.83 1016.47 1016.11 1016.39 1016.07 1015.75 1015.11 1014.15 1013.47 1012.99 1012.27 1011.79 1011.27 1010.95 1010.55 1010.31 1010.47 1010.75 1010.83 1010.87
1020.75 1020.63 1020.63 1020.39 1020.27 1020.19 1020.19 1020.15 1019.99 1019.75 1019.51 1019.11 1018.67 1018.35 1018.19 1018.03 1017.95 1017.95 1017.95 1017.83 1017.75 1017.59 1017.31 1017.07 1016.59 1016.59 1016.35 1015.99 1015.55 1014.95 1013.83 1012.87 1012.07 1011.55 1011.23 1010.95 1010.67 1010.39 1010.47 1010.63 1010.87 1010.99
1021.19 1021.03 1020.79 1020.51 1020.31 1020.27 1020.31 1020.35 1020.19 1019.99 1019.83 1019.55 1019.31 1018.95 1018.59 1018.27 1017.95 1017.91 1017.95 1017.95 1017.91 1017.83 1017.79 1017.55 1017.07 1016.83 1016.63 1016.23 1015.67 1015.15 1014.27 1012.91 1012.15 1011.43 1010.99 1010.83 1010.71 1010.63 1010.47 1010.39 1010.51 1010.63
1021.51 1021.35 1021.11 1020.83 1020.71 1020.63 1020.55 1020.35 1020.35 1020.27 1020.03 1019.75 1019.59 1019.39 1019.19 1018.95 1018.55 1017.99 1017.83 1017.87 1017.99 1018.03 1018.03 1017.87 1017.51 1017.15 1016.95 1016.51 1015.99 1015.39 1014.79 1013.23 1012.27 1011.87 1011.27 1010.79 1010.63 1010.59 1010.55 1010.51 1010.39 1010.39
1021.91 1021.71 1021.43 1021.11 1021.03 1021.11 1020.95 1020.79 1020.63 1020.51 1020.27 1019.99 1019.75 1019.59 1019.43 1019.19 1019.07 1018.71 1018.35 1018.03 1017.91 1017.91 1018.07 1018.03 1017.87 1017.55 1017.27 1016.91 1016.31 1015.71 1014.99 1013.59 1012.39 1011.99 1011.71 1011.27 1010.79 1010.55 1010.59 1010.63 1010.43 1010.27
1022.15 1022.07 1021.83 1021.63 1021.35 1021.15 1020.95 1020.91 1020.71 1020.55 1020.59 1020.27 1019.95 1019.75 1019.67 1019.51 1019.31 1019.11 1018.95 1018.75 1018.39 1018.19 1017.99 1018.07 1018.15 1017.83 1017.63 1017.35 1016.83 1016.11 1015.43 1014.39 1012.87 1012.71 1012.47 1012.07 1011.35 1010.59 1010.55 1010.63 1010.67 1010.79
Thickness
5644 5645 5646 5647 5647 5649 5650 5651 5652 5652 5652 5653 5653 5653 5653 5655 5656 5656 5654 5654 5654 5653 5653 5651 5650 5651 5651 5650 5649 5648 5648 5648 5646 5644 5640 5639 5640 5641 5640 5639 5639 5638
5639 5640 5642 5643 5644 5644 5646 5647 5648 5649 5650 5651 5652 5652 5652 5652 5653 5653 5650 5649 5649 5650 5651 5648 5648 5648 5647 5647 5647 5646 5647 5646 5645 5642 5639 5640 5641 5640 5640 5639 5637 5637
5635 5636 5637 5638 5640 5640 5642 5643 5645 5647 5648 5649 5650 5649 5649 5649 5649 5650 5648 5644 5642 5644 5646 5645 5645 5645 5644 5645 5645 5645 5645 5645 5643 5642 5639 5640 5640 5638 5638 5637 5636 5634
5631 5632 5633 5634 5634 5636 5637 5639 5641 5644 5645 5646 5647 5647 5645 5645 5645 5646 5646 5644 5641 5640 5641 5641 5642 5643 5643 5642 5642 5642 5643 5643 5643 5641 5639 5638 5638 5636 5636 5635 5634 5634
5628 5628 5629 5629 5630 5632 5633 5635 5638 5640 5642 5643 5644 5644 5643 5643 5643 5643 5643 5643 5641 5638 5638 5640 5641 5642 5641 5640 5639 5640 5640 5640 5640 5640 5639 5637 5636 5634 5633 5632 5632 5635
5624 5625 5626 5626 5626 5628 5629 5631 5633 5634 5637 5639 5640 5641 5641 5640 5640 5640 5640 5641 5639 5637 5638 5640 5640 5640 5639 5638 5638 5638 5638 5638 5638 5638 5637 5635 5634 5632 5631 5630 5630 5633
5620 5621 5622 5622 5622 5623 5624 5626 5627 5629 5630 5633 5635 5636 5638 5638 5637 5637 5637 5637 5637 5637 5637 5637 5636 5637 5638 5638 5636 5636 5636 5636 5636 5635 5634 5634 5632 5630 5629 5629 5630 5633
5616 5618 5619 5618 5617 5618 5619 5621 5622 5623 5625 5627 5630 5631 5633 5634 5634 5634 5634 5634 5634 5634 5634 5634 5635 5637 5637 5636 5635 5634 5634 5634 5633 5633 5633 5633 5633 5631 5629 5628 5629 5631
5613 5614 5614 5613 5614 5615 5615 5616 5617 5620 5622 5624 5625 5627 5628 5629 5630 5631 5632 5631 5631 5630 5631 5633 5634 5636 5635 5634 5633 5632 5632 5632 5631 5631 5631 5631 5631 5630 5630 5629 5629 5631
5607 5608 5609 5610 5611 5611 5610 5611 5613 5616 5618 5620 5621 5622 5623 5624 5626 5628 5629 5629 5628 5628 5629 5629 5632 5633 5630 5629 5630 5631 5631 5630 5629 5630 5630 5629 5629 5630 5630 5629 5628 5630
5602 5602 5604 5606 5607 5607 5606 5607 5608 5610 5612 5615 5617 5619 5620 5620 5621 5624 5626 5627 5627 5627 5628 5628 5630 5630 5626 5626 5628 5629 5628 5628 5628 5629 5630 5629 5629 5629 5629 5627 5626 5628
5597 5598 5600 5602 5602 5603 5603 5602 5603 5604 5606 5608 5611 5614 5616 5616 5617 5620 5623 5624 5623 5623 5625 5627 5628 5627 5624 5624 5626 5626 5626 5626 5627 5628 5629 5629 5629 5628 5628 5626 5626 5627
5592 5592 5595 5597 5597 5598 5597 5597 5598 5599 5601 5602 5604 5607 5608 5610 5613 5615 5618 5620 5620 5620 5621 5622 5623 5623 5622 5624 5625 5625 5623 5623 5624 5625 5625 5626 5627 5628 5628 5626 5625 5624
5586 5587 5589 5591 5592 5592 5592 5592 5593 5593 5595 5596 5597 5600 5601 5602 5604 5607 5612 5615 5616 5617 5617 5616 5617 5619 5620 5620 5621 5621 5620 5620 5621 5621 5621 5623 5624 5626 5627 5626 5625 5623
5580 5581 5583 5584 5585 5586 5587 5587 5588 5588 5588 5589 5590 5592 5593 5595 5597 5599 5604 5607 5609 5612 5613 5611 5611 5613 5614 5614 5614 5614 5614 5615 5617 5617 5618 5620 5622 5623 5624 5625 5625 5624
5574 5574 5575 5576 5578 5579 5580 5582 5583 5582 5583 5583 5584 5585 5586 5588 5591 5592 5595 5597 5599 5603 5605 5604 5603 5602 5602 5605 5608 5608 5609 5611 5612 5613 5615 5618 5620 5621 5621 5623 5624 5624
5567 5567 5568 5569 5570 5572 5574 5576 5576 5576 5576 5576 5577 5578 5579 5580 5582 5584 5586 5587 5589 5593 5595 5595 5591 5588 5590 5594 5598 5602 5605 5606 5608 5609 5612 5616 5619 5620 5620 5620 5621 5621
5560 5560 5561 5562 5564 5565 5566 5568 5569 5569 5568 5569 5570 5571 5572 5573 5574 5576 5577 5578 5580 5582 5585 5585 5581 5579 5583 5585 5589 5594 5596 5599 5603 5607 5611 5614 5616 5617 5618 5617 5617 5616
5553 5553 5554 5555 5556 5558 5559 5561 5562 5562 5561 5561 5563 5563 5564 5565 5566 5568 5568 5569 5571 5572 5574 5577 5574 5572 5575 5578 5582 5586 5588 5591 5597 5603 5608 5611 5612 5612 5612 5612 5612 5612
5546 5546 5546 5547 5549 5550 5551 5552 5553 5554 5555 5555 5556 5557 5557 5558 5558 5560 5560 5561 5562 5563 5564 5568 5568 5565 5568 5571 5575 5580 5583 5586 5591 5596 5601 5607 5609 5608 5608 5608 5609 5609
5539 5539 5539 5540 5541 5541 5542 5543 5544 5546 5547 5549 5551 5551 5551 5551 5552 5552 5553 5553 5554 5555 5556 5559 5560 5560 5561 5565 5569 5574 5578 5583 5587 5592 5595 5600 5604 5607 5606 5605 5605 5606
5532 5532 5533 5533 5535 5535 5534 5535 5535 5537 5539 5541 5543 5545 5546 5546 5546 5546 5546 5546 5546 5547 5548 5550 5552 5554 5555 5558 5562 5567 5573 5579 5585 5589 5592 5595 5598 5602 5602 5602 5601 5602
5524 5525 5525 5527 5528 5528 5527 5527 5527 5528 5530 5532 5534 5536 5538 5539 5541 5541 5541 5540 5540 5540 5541 5542 5545 5547 5549 5552 5557 5560 5566 5575 5581 5585 5589 5592 5594 5596 5598 5599 5599 5599
5515 5516 5517 5519 5520 5519 5520 5520 5520 5520 5522 5524 5525 5527 5528 5530 5532 5534 5535 5535 5534 5534 5534 5535 5537 5540 5543 5546 5550 5555 5561 5569 5576 5580 5584 5587 5589 5591 5592 5594 5596 5597
5507 5508 5509 5511 5511 5511 5511 5512 5513 5513 5514 5516 5517 5519 5520 5521 5523 5525 5526 5528 5529 5529 5528 5528 5529 5532 5535 5538 5544 5548 5554 5563 5572 5575 5576 5580 5584 5587 5588 5588 5590 5593
5499 5498 5499 5501 5501 5503 5504 5503 5505 5506 5505 5507 5510 5510 5511 5512 5514 5516 5517 5518 5520 5522 5522 5522 5523 5524 5527 5530 5536 5541 5546 5554 5564 5567 5567 5572 5577 5582 5584 5584 5584 5585